period_start,C,m1,H,J0,J1,J2,J3,J4,J5,JA,JB,JC,JD,JJ,JK,JN,#
2014-01-17 00:00:25,0.39,5.59,0.00,19.07,24.97,28.36,6.35,33.13,1027.36,2047.01,1898.95,2080.34,2245.96,349.98,331.77,17.82,0000 0000 0000 0000 000000
2014-01-17 00:01:25,0.41,5.59,0.00,19.08,24.97,28.36,6.48,33.46,1027.36,2047.01,1898.42,2080.12,2245.42,351.03,332.40,17.83,0000 0000 0000 0000 000000
2014-01-17 00:02:25,0.40,5.59,0.00,19.10,24.97,28.39,6.15,33.33,1027.36,2047.00,1898.11,2079.76,2245.13,348.96,330.78,17.83,0000 0000 0000 0000 000000
2014-01-17 00:03:26,0.34,5.60,0.00,19.12,24.97,28.40,6.21,33.08,1027.36,2047.00,1897.60,2079.29,2244.66,350.07,331.80,17.84,0000 0000 0000 0000 000000
2014-01-17 00:04:26,0.45,5.60,0.00,19.11,24.97,28.38,6.24,33.08,1027.36,2047.00,1897.21,2079.08,2244.24,350.17,332.24,17.84,0000 0000 0000 0000 000000
2014-01-17 00:05:26,0.36,5.60,0.00,19.10,24.97,28.40,6.23,33.17,1027.36,2047.00,1896.74,2078.67,2243.92,350.44,332.18,17.85,0000 0000 0000 0000 000000
2014-01-17 00:06:27,0.37,5.60,0.00,19.10,24.97,28.40,6.23,33.21,1027.36,2047.00,1896.27,2078.26,2243.40,349.94,331.70,17.85,0000 0000 0000 0000 000000
2014-01-17 00:07:27,0.49,5.61,0.00,19.11,24.97,28.40,6.18,32.63,1027.36,2047.01,1895.93,2078.01,2243.12,349.92,331.90,17.86,0000 0000 0000 0000 000000
2014-01-17 00:08:27,0.35,5.61,0.00,19.10,24.97,28.35,6.31,33.13,1027.36,2047.00,1895.38,2077.47,2242.61,350.76,332.72,17.87,0000 0000 0000 0000 000000
2014-01-17 00:09:28,0.47,5.61,0.00,19.09,24.97,28.36,6.23,33.04,1027.36,2047.00,1895.08,2077.15,2242.23,349.83,331.60,17.87,0000 0000 0000 0000 000000
2014-01-17 00:10:28,0.34,5.62,0.00,19.09,24.97,28.42,6.36,33.25,1027.36,2047.00,1894.56,2076.94,2241.97,350.85,332.25,17.88,0000 0000 0000 0000 000000
2014-01-17 00:11:28,0.39,5.62,0.00,19.09,24.98,28.45,6.27,33.00,1027.36,2047.00,1894.20,2076.40,2241.44,349.96,332.09,17.88,0000 0000 0000 0000 000000
2014-01-17 00:12:28,0.43,5.62,0.00,19.09,24.99,28.38,6.25,33.04,1027.36,2047.00,1893.77,2076.14,2241.15,349.86,331.95,17.89,0000 0000 0000 0000 000000
2014-01-17 00:13:28,0.34,5.62,0.00,19.10,24.99,28.40,6.15,33.04,1027.36,2047.00,1893.30,2075.89,2240.71,350.18,331.90,17.90,0000 0000 0000 0000 000000
2014-01-17 00:14:29,0.39,5.62,0.00,19.11,25.00,28.38,6.26,33.17,1027.36,2047.00,1893.01,2075.41,2240.26,350.39,331.88,17.90,0000 0000 0000 0000 000000
2014-01-17 00:15:29,0.42,5.63,0.00,19.11,25.00,28.41,6.17,33.08,1027.36,2047.00,1892.44,2075.15,2240.04,350.32,331.52,17.91,0000 0000 0000 0000 000000
2014-01-17 00:16:29,0.36,5.63,0.00,19.10,25.00,28.40,6.17,33.00,1027.36,2047.00,1892.14,2074.74,2239.57,350.55,332.28,17.91,0000 0000 0000 0000 000000
2014-01-17 00:17:30,0.40,5.63,0.00,19.10,25.00,28.44,6.13,32.96,1027.36,2047.00,1891.66,2074.28,2239.21,349.41,330.81,17.92,0000 0000 0000 0000 000000
2014-01-17 00:18:30,0.43,5.63,0.00,19.09,25.00,28.44,6.12,32.92,1027.35,2047.00,1891.24,2074.07,2238.99,349.23,331.57,17.93,0000 0000 0000 0000 000000
2014-01-17 00:19:30,0.33,5.64,0.00,19.09,25.00,28.42,6.27,33.21,1027.36,2047.00,1890.92,2073.66,2238.48,350.07,332.06,17.93,0000 0000 0000 0000 000000
2014-01-17 00:20:30,0.42,5.64,0.00,19.11,25.00,28.43,6.13,32.96,1027.36,2047.00,1890.36,2073.25,2238.17,350.10,331.93,17.94,0000 0000 0000 0000 000000
2014-01-17 00:21:31,0.41,5.64,0.00,19.11,25.00,28.41,6.17,33.04,1027.36,2047.00,1890.00,2073.05,2237.80,349.39,331.32,17.94,0000 0000 0000 0000 000000
2014-01-17 00:22:31,0.38,5.64,0.00,19.12,25.00,28.39,6.32,33.08,1027.36,2047.00,1889.42,2072.56,2237.34,349.75,331.37,17.95,0000 0000 0000 0000 000000
2014-01-17 00:23:31,0.46,5.64,0.00,19.12,25.01,28.41,6.17,33.08,1027.36,2047.00,1889.02,2072.20,2237.12,350.34,332.06,17.95,0000 0000 0000 0000 000000
2014-01-17 00:24:31,0.39,5.65,0.00,19.12,25.02,28.40,6.11,33.17,1027.36,2047.00,1888.42,2071.91,2236.78,349.51,331.28,17.96,0000 0000 0000 0000 000000
2014-01-17 00:25:32,0.42,5.65,0.00,19.11,25.02,28.42,6.38,33.00,1027.36,2047.00,1888.11,2071.40,2236.31,350.41,332.17,17.97,0000 0000 0000 0000 000000
2014-01-17 00:26:32,0.44,5.65,0.00,19.11,25.02,28.40,6.17,33.29,1027.36,2047.00,1887.55,2071.14,2236.05,350.20,331.68,17.97,0000 0000 0000 0000 000000
2014-01-17 00:27:32,0.36,5.66,0.00,19.12,25.02,28.42,6.13,33.00,1027.36,2047.00,1887.18,2070.81,2235.49,349.45,330.97,17.98,0000 0000 0000 0000 000000
2014-01-17 00:28:33,0.42,5.66,0.00,19.13,25.02,28.45,6.24,33.04,1027.36,2047.00,1886.70,2070.32,2235.17,350.60,332.42,17.98,0000 0000 0000 0000 000000
2014-01-17 00:29:33,0.43,5.66,0.00,19.12,25.02,28.44,6.35,33.21,1027.36,2047.00,1886.27,2070.10,2234.90,351.40,333.18,17.99,0000 0000 0000 0000 000000
2014-01-17 00:30:33,0.33,5.66,0.00,19.12,25.02,28.43,6.08,33.13,1027.36,2047.00,1885.95,2069.78,2234.38,349.99,331.73,18.00,0000 0000 0000 0000 000000
2014-01-17 00:31:34,0.41,5.67,0.00,19.12,25.02,28.43,6.12,33.04,1027.36,2047.00,1885.40,2069.30,2234.10,349.61,331.36,18.00,0000 0000 0000 0000 000000
2014-01-17 00:32:34,0.44,5.67,0.00,19.12,25.02,28.42,6.25,33.04,1027.36,2047.00,1885.06,2069.08,2233.61,350.03,331.76,18.01,0000 0000 0000 0000 000000
2014-01-17 00:33:34,0.37,5.67,0.00,19.13,25.02,28.41,6.17,33.13,1027.35,2047.00,1884.47,2068.65,2233.23,349.97,331.69,18.01,0000 0000 0000 0000 000000
2014-01-17 00:34:34,0.44,5.67,0.00,19.12,25.03,28.43,6.27,32.88,1027.35,2047.00,1884.14,2068.24,2232.96,350.19,331.80,18.02,0000 0000 0000 0000 000000
2014-01-17 00:35:35,0.41,5.67,0.00,19.14,25.04,28.49,6.37,33.25,1027.33,2047.00,1883.57,2068.04,2232.42,349.90,331.62,18.02,0000 0000 0000 0000 000000
2014-01-17 00:36:35,0.40,5.67,0.00,19.14,25.04,28.41,6.32,33.17,1027.26,2047.00,1883.20,2067.54,2232.15,349.08,330.81,18.03,0000 0000 0000 0000 000000
2014-01-17 00:37:35,0.38,5.68,0.00,19.14,25.04,28.42,6.29,33.08,1027.33,2047.00,1882.79,2067.20,2231.79,350.60,332.29,18.04,0000 0000 0000 0000 000000
2014-01-17 00:38:36,0.40,5.68,0.00,19.14,25.05,28.43,6.35,33.25,1027.34,2047.00,1882.29,2066.98,2231.30,350.11,331.81,18.04,0000 0000 0000 0000 000000
2014-01-17 00:39:36,0.41,5.68,0.00,19.14,25.05,28.42,6.07,33.08,1027.33,2047.00,1881.98,2066.46,2231.06,349.94,331.64,18.05,0000 0000 0000 0000 000000
2014-01-17 00:40:36,0.42,5.68,0.00,19.14,25.05,28.42,6.19,33.08,1027.35,2047.00,1881.42,2066.16,2230.49,348.88,330.65,18.05,0000 0000 0000 0000 000000
2014-01-17 00:41:36,0.41,5.69,0.00,19.14,25.05,28.44,6.45,33.46,1027.35,2047.00,1881.13,2065.87,2230.17,350.90,332.56,18.06,0000 0000 0000 0000 000000
2014-01-17 00:42:36,0.35,5.69,0.00,19.14,25.05,28.43,6.34,33.13,1027.35,2047.00,1880.65,2065.36,2229.83,350.57,332.24,18.07,0000 0000 0000 0000 000000
2014-01-17 00:43:37,0.44,5.69,0.00,19.14,25.05,28.43,6.27,33.17,1027.35,2047.00,1880.23,2065.11,2229.33,350.34,332.03,18.07,0000 0000 0000 0000 000000
2014-01-17 00:44:37,0.38,5.70,0.00,19.15,25.05,28.47,6.28,33.21,1027.34,2047.00,1879.87,2064.74,2229.09,350.30,331.98,18.08,0000 0000 0000 0000 000000
2014-01-17 00:45:37,0.39,5.70,0.00,19.15,25.05,28.47,6.29,33.25,1027.36,2047.00,1879.33,2064.29,2228.61,350.52,332.44,18.08,0000 0000 0000 0000 000000
2014-01-17 00:46:38,0.44,5.70,0.00,19.17,25.06,28.47,6.00,33.21,1027.36,2047.00,1878.97,2064.05,2228.22,349.46,331.17,18.09,0000 0000 0000 0000 000000
2014-01-17 00:47:38,0.41,5.70,0.00,19.16,25.06,28.47,6.14,33.33,1027.36,2047.00,1878.38,2063.52,2227.82,350.29,331.96,18.10,0000 0000 0000 0000 000000
2014-01-17 00:48:38,0.47,5.71,0.00,19.16,25.07,28.47,6.23,33.21,1027.34,2047.00,1877.95,2063.19,2227.32,350.37,331.94,18.10,0000 0000 0000 0000 000000
2014-01-17 00:49:39,0.42,5.71,0.00,19.15,25.07,28.45,6.27,33.13,1027.32,2047.00,1877.40,2062.93,2227.09,349.91,331.58,18.11,0000 0000 0000 0000 000000
2014-01-17 00:50:39,0.39,5.71,0.00,19.16,25.07,28.46,6.27,33.21,1027.35,2047.00,1877.11,2062.41,2226.58,350.11,331.97,18.11,0000 0000 0000 0000 000000
2014-01-17 00:51:39,0.43,5.71,0.00,19.17,25.07,28.47,6.30,33.08,1027.36,2047.00,1876.55,2062.13,2226.20,350.25,331.92,18.12,0000 0000 0000 0000 000000
2014-01-17 00:52:39,0.38,5.72,0.00,19.15,25.07,28.47,6.23,33.25,1027.35,2047.00,1876.18,2061.84,2225.93,349.80,331.80,18.12,0000 0000 0000 0000 000000
2014-01-17 00:53:40,0.40,5.72,0.00,19.15,25.07,28.48,6.08,32.96,1027.35,2047.00,1875.67,2061.34,2225.40,349.29,331.00,18.13,0000 0000 0000 0000 000000
2014-01-17 00:54:40,0.47,5.72,0.00,19.15,25.07,28.49,6.33,33.17,1027.36,2047.00,1875.24,2061.12,2225.14,349.80,331.52,18.14,0000 0000 0000 0000 000000
2014-01-17 00:55:40,0.30,5.72,0.00,19.16,25.07,28.49,6.34,33.29,1027.36,2047.00,1874.84,2060.76,2224.76,350.95,332.59,18.14,0000 0000 0000 0000 000000
2014-01-17 00:56:40,0.48,5.73,0.00,19.17,25.08,28.52,6.33,33.25,1027.36,2047.00,1874.32,2060.28,2224.28,350.62,332.06,18.15,0000 0000 0000 0000 000000
2014-01-17 00:57:41,0.43,5.73,0.00,19.17,25.09,28.48,6.29,33.13,1027.36,2047.00,1874.05,2060.09,2224.09,350.29,332.06,18.15,0000 0000 0000 0000 000000
2014-01-17 00:58:41,0.27,5.73,0.00,19.17,25.09,28.52,6.27,33.25,1027.36,2047.00,1873.49,2059.67,2223.62,350.26,331.92,18.16,0000 0000 0000 0000 000000
2014-01-17 00:59:41,0.48,5.73,0.00,19.17,25.10,28.52,6.13,33.08,1027.36,2047.00,1873.16,2059.24,2223.22,350.68,332.33,18.17,0000 0000 0000 0000 000000
2014-01-17 01:00:41,0.38,5.73,0.00,19.18,25.10,28.54,6.17,32.83,1027.35,2047.00,1872.67,2059.03,2222.82,350.21,331.86,18.17,0000 0000 0000 0000 000000
2014-01-17 01:01:42,0.42,5.74,0.00,19.19,25.10,28.56,6.13,33.00,1027.36,2047.00,1872.24,2058.49,2222.31,349.81,331.47,18.18,0000 0000 0000 0000 000000
2014-01-17 01:02:42,0.45,5.74,0.00,19.18,25.10,28.56,6.20,33.29,1027.36,2047.00,1871.95,2058.18,2222.07,350.48,331.97,18.18,0000 0000 0000 0000 000000
2014-01-17 01:03:42,0.36,5.74,0.00,19.19,25.10,28.48,6.23,33.00,1027.36,2047.00,1871.38,2057.95,2221.54,349.80,331.43,18.19,0000 0000 0000 0000 000000
2014-01-17 01:04:43,0.42,5.74,0.00,19.19,25.10,28.50,6.37,33.46,1027.36,2047.00,1871.13,2057.43,2221.19,350.23,332.10,18.20,0000 0000 0000 0000 000000
2014-01-17 01:05:43,0.37,5.75,0.00,19.19,25.10,28.50,6.28,33.29,1027.36,2047.00,1870.85,2057.16,2220.87,349.65,331.68,18.20,0000 0000 0000 0000 000000
2014-01-17 01:06:43,0.35,5.75,0.00,19.19,25.10,28.53,6.13,33.00,1027.36,2047.00,1870.33,2056.97,2220.34,348.94,330.43,18.21,0000 0000 0000 0000 000000
2014-01-17 01:07:43,0.37,5.75,0.00,19.20,25.10,28.54,6.19,33.04,1027.36,2047.00,1869.98,2056.44,2220.09,349.87,331.26,18.21,0000 0000 0000 0000 000000
2014-01-17 01:08:44,0.42,5.75,0.00,19.20,25.11,28.53,6.25,33.13,1027.36,2047.00,1869.41,2056.15,2219.61,350.01,331.60,18.22,0000 0000 0000 0000 000000
2014-01-17 01:09:44,0.42,5.76,0.00,19.19,25.12,28.53,6.19,33.25,1027.36,2047.00,1869.08,2055.85,2219.22,349.92,332.00,18.22,0000 0000 0000 0000 000000
2014-01-17 01:10:44,0.41,5.76,0.00,19.19,25.12,28.52,6.22,33.25,1027.36,2047.00,1868.48,2055.34,2218.93,349.73,331.54,18.23,0000 0000 0000 0000 000000
2014-01-17 01:11:45,0.45,5.76,0.00,19.19,25.12,28.52,6.17,33.33,1027.36,2047.00,1868.14,2055.10,2218.41,349.51,331.40,18.24,0000 0000 0000 0000 000000
2014-01-17 01:12:45,0.36,5.76,0.00,19.20,25.12,28.52,6.17,33.33,1027.36,2047.00,1867.58,2054.62,2218.14,349.81,331.46,18.24,0000 0000 0000 0000 000000
2014-01-17 01:13:45,0.46,5.77,0.00,19.20,25.12,28.51,6.18,33.04,1027.36,2047.00,1867.17,2054.25,2217.73,349.84,331.50,18.25,0000 0000 0000 0000 000000
2014-01-17 01:14:45,0.43,5.77,0.00,19.21,25.12,28.51,6.21,33.08,1027.36,2047.00,1866.61,2054.02,2217.28,349.65,331.31,18.25,0000 0000 0000 0000 000000
2014-01-17 01:15:46,0.41,5.77,0.00,19.21,25.12,28.50,6.22,33.13,1027.36,2047.00,1866.20,2053.52,2217.03,350.43,332.05,18.26,0000 0000 0000 0000 000000
2014-01-17 01:16:46,0.42,5.77,0.00,19.20,25.12,28.45,6.18,33.17,1027.36,2047.00,1865.82,2053.19,2216.47,350.04,331.70,18.27,0000 0000 0000 0000 000000
2014-01-17 01:17:46,0.42,5.78,0.00,19.19,25.12,28.50,6.22,33.13,1027.36,2047.00,1865.33,2052.99,2216.15,349.50,331.18,18.27,0000 0000 0000 0000 000000
2014-01-17 01:18:47,0.35,5.78,0.00,19.20,25.13,28.55,6.32,33.29,1027.36,2047.00,1865.11,2052.48,2215.83,350.14,331.78,18.28,0000 0000 0000 0000 000000
2014-01-17 01:19:47,0.38,5.78,0.00,19.21,25.13,28.56,6.22,33.08,1027.36,2047.00,1864.68,2052.18,2215.32,349.72,331.37,18.28,0000 0000 0000 0000 000000
2014-01-17 01:20:47,0.40,5.78,0.00,19.19,25.14,28.54,6.41,33.17,1027.36,2047.00,1864.25,2051.89,2215.04,350.33,332.05,18.29,0000 0000 0000 0000 000000
2014-01-17 01:21:47,0.38,5.78,0.00,19.21,25.14,28.53,6.20,33.29,1027.36,2047.00,1864.00,2051.39,2214.50,349.76,331.41,18.29,0000 0000 0000 0000 000000
2014-01-17 01:22:47,0.42,5.79,0.00,19.22,25.15,28.54,6.22,33.21,1027.36,2047.00,1863.48,2051.15,2214.17,350.60,332.19,18.30,0000 0000 0000 0000 000000
2014-01-17 01:23:48,0.35,5.79,0.00,19.22,25.15,28.51,6.26,33.29,1027.36,2046.99,1863.18,2050.97,2213.79,350.26,331.87,18.31,0000 0000 0000 0000 000000
2014-01-17 01:24:48,0.32,5.79,0.00,19.22,25.15,28.52,6.18,33.17,1027.36,2046.99,1863.02,2050.47,2213.30,350.20,331.35,18.31,0000 0000 0000 0000 000000
2014-01-17 01:25:48,0.35,5.79,0.00,19.22,25.15,28.54,6.17,33.21,1027.37,2046.99,1862.55,2050.17,2212.99,349.46,331.41,18.32,0000 0000 0000 0000 000000
2014-01-17 01:26:49,0.39,5.80,0.00,19.22,25.15,28.52,6.33,32.92,1027.36,2046.97,1862.20,2049.93,2212.43,350.38,331.99,18.32,0000 0000 0000 0000 000000
2014-01-17 01:27:49,0.35,5.80,0.00,19.22,25.15,28.55,6.32,33.21,1027.37,2046.98,1861.86,2049.43,2212.13,349.17,330.84,18.33,0000 0000 0000 0000 000000
2014-01-17 01:28:49,0.45,5.80,0.00,19.23,25.15,28.54,6.24,33.04,1027.39,2046.98,1861.34,2049.15,2211.74,350.23,331.68,18.34,0000 0000 0000 0000 000000
2014-01-17 01:29:49,0.39,5.80,0.00,19.24,25.15,28.55,6.08,32.67,1027.37,2046.95,1860.90,2048.79,2211.29,348.73,330.70,18.34,0000 0000 0000 0000 000000
2014-01-17 01:30:50,0.45,5.80,0.00,19.24,25.15,28.56,6.08,32.75,1027.37,2046.95,1860.36,2048.30,2211.06,349.21,331.17,18.35,0000 0000 0000 0000 000000
2014-01-17 01:31:50,0.39,5.81,0.00,19.24,25.15,28.58,6.17,33.00,1027.37,2046.92,1859.88,2048.02,2210.53,349.91,331.79,18.35,0000 0000 0000 0000 000000
2014-01-17 01:32:50,0.45,5.81,0.00,19.22,25.16,28.58,6.37,33.00,1027.41,2046.85,1859.33,2047.50,2210.18,349.92,331.56,18.36,0000 0000 0000 0000 000000
2014-01-17 01:33:51,0.40,5.81,0.00,19.22,25.17,28.57,6.13,33.00,1027.38,2046.80,1858.90,2047.18,2209.90,349.54,331.45,18.37,0000 0000 0000 0000 000000
2014-01-17 01:34:51,0.34,5.81,0.00,19.24,25.17,28.59,6.32,33.04,1027.39,2046.74,1858.33,2047.06,2209.37,350.68,332.25,18.37,0000 0000 0000 0000 000000
2014-01-17 01:35:51,0.30,5.82,0.00,19.22,25.17,28.59,6.37,33.13,1027.39,2046.67,1858.04,2046.74,2209.11,349.48,331.13,18.38,0000 0000 0000 0000 000000
2014-01-17 01:36:51,0.21,5.82,0.00,19.22,25.17,28.55,6.19,32.54,1027.38,2046.66,1857.51,2046.29,2208.61,350.35,331.96,18.38,0000 0000 0000 0000 000000
2014-01-17 01:37:52,0.51,5.82,0.00,19.23,25.17,28.53,6.14,32.79,1027.41,2046.66,1857.19,2046.10,2208.22,349.09,330.77,18.39,0000 0000 0000 0000 000000
2014-01-17 01:38:52,0.36,5.82,0.00,19.24,25.17,28.50,6.31,32.96,1027.40,2046.72,1856.89,2045.83,2207.90,351.05,332.57,18.39,0000 0000 0000 0000 000000
2014-01-17 01:39:52,0.36,5.82,0.00,19.23,25.17,28.50,6.05,32.50,1027.40,2046.78,1856.39,2045.35,2207.39,348.99,330.84,18.40,0000 0000 0000 0000 000000
2014-01-17 01:40:52,0.56,5.83,0.00,19.23,25.17,28.54,6.21,32.96,1027.38,2046.73,1856.03,2045.12,2207.11,350.36,331.96,18.41,0000 0000 0000 0000 000000
2014-01-17 01:41:52,0.23,5.83,0.00,19.23,25.17,28.56,6.16,32.71,1027.38,2046.81,1855.52,2044.86,2206.77,350.54,332.13,18.41,0000 0000 0000 0000 000000
2014-01-17 01:42:53,0.53,5.83,0.00,19.22,25.17,28.57,6.13,32.83,1027.36,2046.78,1855.18,2044.35,2206.29,350.29,331.49,18.42,0000 0000 0000 0000 000000
2014-01-17 01:43:53,0.35,5.83,0.00,19.23,25.17,28.60,6.14,32.75,1027.37,2046.67,1854.80,2044.10,2205.98,349.90,331.82,18.42,0000 0000 0000 0000 000000
2014-01-17 01:44:53,0.27,5.84,0.00,19.24,25.17,28.61,6.17,32.79,1027.38,2046.49,1854.31,2043.69,2205.42,349.25,331.17,18.43,0000 0000 0000 0000 000000
2014-01-17 01:45:53,0.29,5.84,0.00,19.24,25.18,28.61,6.28,33.13,1027.38,2046.41,1854.07,2043.25,2205.11,350.50,332.08,18.44,0000 0000 0000 0000 000000
2014-01-17 01:46:54,0.22,5.84,0.00,19.24,25.18,28.56,6.14,33.08,1027.39,2046.40,1853.62,2043.00,2204.62,349.17,330.82,18.44,0000 0000 0000 0000 000000
2014-01-17 01:47:54,0.40,5.84,0.00,19.25,25.19,28.54,6.23,33.25,1027.37,2046.31,1853.22,2042.47,2204.22,348.78,330.43,18.45,0000 0000 0000 0000 000000
2014-01-17 01:48:54,0.37,5.84,0.00,19.24,25.19,28.57,6.21,33.04,1027.36,2046.28,1852.88,2042.17,2203.96,349.21,330.85,18.45,0000 0000 0000 0000 000000
2014-01-17 01:49:54,0.34,5.85,0.00,19.24,25.19,28.61,6.16,32.46,1027.36,2046.26,1852.37,2041.99,2203.43,350.50,332.17,18.46,0000 0000 0000 0000 000000
2014-01-17 01:50:55,0.39,5.85,0.00,19.24,25.20,28.65,5.97,32.58,1027.36,2046.30,1852.10,2041.51,2203.14,349.97,331.27,18.46,0000 0000 0000 0000 000000
2014-01-17 01:51:55,0.40,5.85,0.00,19.25,25.20,28.62,6.17,32.83,1027.37,2046.19,1851.57,2041.17,2202.68,349.80,331.41,18.47,0000 0000 0000 0000 000000
2014-01-17 01:52:55,0.38,5.85,0.00,19.25,25.20,28.62,6.31,32.79,1027.37,2046.18,1851.17,2040.86,2202.24,350.37,331.94,18.48,0000 0000 0000 0000 000000
2014-01-17 01:53:55,0.37,5.85,0.00,19.26,25.20,28.60,6.23,32.75,1027.36,2046.20,1850.58,2040.37,2201.97,349.60,331.20,18.48,0000 0000 0000 0000 000000
2014-01-17 01:54:55,0.49,5.86,0.00,19.25,25.20,28.61,6.20,32.54,1027.37,2046.21,1850.20,2040.13,2201.46,350.04,331.62,18.49,0000 0000 0000 0000 000000
2014-01-17 01:55:56,0.41,5.86,0.00,19.25,25.20,28.65,6.14,32.67,1027.36,2046.19,1849.69,2039.86,2201.16,350.03,331.61,18.49,0000 0000 0000 0000 000000
2014-01-17 01:56:56,0.37,5.86,0.00,19.25,25.20,28.63,6.15,32.75,1027.36,2046.17,1849.25,2039.37,2200.86,349.70,331.40,18.50,0000 0000 0000 0000 000000
2014-01-17 01:57:56,0.40,5.86,0.00,19.25,25.20,28.63,6.16,32.96,1027.36,2046.18,1848.78,2039.11,2200.37,350.79,332.34,18.51,0000 0000 0000 0000 000000
2014-01-17 01:58:57,0.43,5.87,0.00,19.26,25.20,28.60,6.13,33.00,1027.36,2046.15,1848.29,2038.68,2200.07,349.51,331.12,18.51,0000 0000 0000 0000 000000
2014-01-17 01:59:57,0.42,5.87,0.00,19.27,25.20,28.61,6.08,32.71,1027.36,2046.07,1847.89,2038.25,2199.53,350.19,331.75,18.52,0000 0000 0000 0000 000000
2014-01-17 02:00:57,0.40,5.87,0.00,19.25,25.20,28.66,6.18,32.63,1027.36,2046.04,1847.35,2037.94,2199.19,349.58,331.40,18.52,0000 0000 0000 0000 000000
2014-01-17 02:01:58,0.36,5.87,0.00,19.25,25.20,28.67,6.14,32.88,1027.36,2046.04,1846.86,2037.40,2198.74,349.69,330.97,18.53,0000 0000 0000 0000 000000
2014-01-17 02:02:58,0.59,5.88,0.00,19.25,25.21,28.66,6.30,32.88,1027.36,2046.04,1846.33,2037.13,2198.27,350.31,331.65,18.54,0000 0000 0000 0000 000000
2014-01-17 02:03:58,0.39,5.88,0.00,19.25,25.21,28.66,6.26,32.71,1027.36,2046.05,1845.95,2036.64,2198.00,350.37,331.93,18.54,0000 0000 0000 0000 000000
2014-01-17 02:04:58,0.46,5.88,0.00,19.26,25.22,28.68,6.30,32.88,1027.36,2046.03,1845.38,2036.23,2197.47,349.78,331.21,18.55,0000 0000 0000 0000 000000
2014-01-17 02:05:59,0.48,5.89,0.00,19.27,25.22,28.61,6.36,32.83,1027.36,2046.01,1845.02,2036.05,2197.17,350.04,331.96,18.55,0000 0000 0000 0000 000000
2014-01-17 02:06:59,0.21,5.89,0.00,19.27,25.22,28.60,6.25,32.96,1027.36,2046.01,1844.45,2035.55,2196.81,349.60,331.52,18.56,0000 0000 0000 0000 000000
2014-01-17 02:07:59,0.62,5.89,0.00,19.27,25.22,28.66,6.16,32.83,1027.36,2046.04,1844.14,2035.20,2196.33,349.64,330.83,18.56,0000 0000 0000 0000 000000
2014-01-17 02:08:59,0.38,5.89,0.00,19.29,25.22,28.64,6.27,32.92,1027.36,2046.03,1843.59,2034.91,2196.08,350.57,332.22,18.57,0000 0000 0000 0000 000000
2014-01-17 02:09:59,0.41,5.89,0.00,19.27,25.22,28.65,6.13,32.79,1027.36,2046.02,1843.19,2034.40,2195.60,349.12,330.72,18.58,0000 0000 0000 0000 000000
2014-01-17 02:11:00,0.47,5.90,0.00,19.28,25.22,28.67,6.16,32.46,1027.36,2046.03,1842.64,2034.14,2195.21,349.47,331.05,18.58,0000 0000 0000 0000 000000
2014-01-17 02:12:00,0.42,5.90,0.00,19.28,25.22,28.63,6.25,32.46,1027.36,2046.03,1842.22,2033.78,2194.97,350.99,331.95,18.59,0000 0000 0000 0000 000000
2014-01-17 02:13:00,0.38,5.90,0.00,19.28,25.22,28.63,6.07,32.58,1027.36,2046.02,1841.87,2033.31,2194.44,349.01,331.02,18.59,0000 0000 0000 0000 000000
2014-01-17 02:14:00,0.46,5.91,0.00,19.29,25.22,28.63,6.18,32.63,1027.36,2046.01,1841.36,2033.09,2194.13,350.08,331.62,18.60,0000 0000 0000 0000 000000
2014-01-17 02:15:00,0.32,5.91,0.00,19.29,25.22,28.66,6.37,32.79,1027.36,2046.01,1841.08,2032.78,2193.72,350.00,331.44,18.61,0000 0000 0000 0000 000000
2014-01-17 02:16:01,0.37,5.91,0.00,19.29,25.22,28.67,6.24,33.17,1027.36,2046.02,1840.55,2032.32,2193.26,350.34,331.86,18.61,0000 0000 0000 0000 000000
2014-01-17 02:17:01,0.53,5.91,0.00,19.29,25.22,28.66,6.10,32.63,1027.36,2046.01,1840.19,2032.12,2192.99,349.41,330.55,18.62,0000 0000 0000 0000 000000
2014-01-17 02:18:01,0.24,5.91,0.00,19.29,25.22,28.65,6.17,32.58,1027.36,2046.02,1839.76,2031.84,2192.48,349.45,331.02,18.62,0000 0000 0000 0000 000000
2014-01-17 02:19:01,0.49,5.92,0.00,19.27,25.23,28.66,6.19,32.83,1027.36,2046.03,1839.28,2031.34,2192.16,349.62,331.21,18.63,0000 0000 0000 0000 000000
2014-01-17 02:20:01,0.46,5.92,0.00,19.29,25.24,28.61,6.40,32.96,1027.36,2046.03,1838.88,2031.03,2191.71,350.86,332.36,18.63,0000 0000 0000 0000 000000
2014-01-17 02:21:02,0.38,5.92,0.00,19.30,25.24,28.63,6.27,32.71,1027.36,2046.04,1838.37,2030.52,2191.27,349.73,331.28,18.64,0000 0000 0000 0000 000000
2014-01-17 02:22:02,0.56,5.92,0.00,19.31,25.24,28.67,6.25,32.88,1027.36,2046.02,1838.09,2030.19,2190.99,349.97,331.50,18.65,0000 0000 0000 0000 000000
2014-01-17 02:23:02,0.24,5.93,0.00,19.30,25.25,28.69,6.13,32.67,1027.36,2046.00,1837.55,2029.94,2190.44,349.41,331.51,18.65,0000 0000 0000 0000 000000
2014-01-17 02:24:02,0.48,5.93,0.00,19.29,25.25,28.66,6.27,32.92,1027.36,2046.00,1837.18,2029.44,2190.15,349.76,331.44,18.66,0000 0000 0000 0000 000000
2014-01-17 02:25:03,0.43,5.93,0.00,19.29,25.25,28.64,6.34,32.92,1027.36,2046.01,1836.68,2029.16,2189.82,350.88,332.37,18.66,0000 0000 0000 0000 000000
2014-01-17 02:26:03,0.43,5.93,0.00,19.29,25.25,28.63,6.14,32.88,1027.36,2046.02,1836.25,2028.89,2189.33,349.82,331.37,18.67,0000 0000 0000 0000 000000
2014-01-17 02:27:03,0.37,5.94,0.00,19.30,25.25,28.63,6.23,32.79,1027.36,2046.00,1836.02,2028.37,2189.08,350.52,331.65,18.68,0000 0000 0000 0000 000000
2014-01-17 02:28:03,0.37,5.94,0.00,19.31,25.25,28.63,6.34,32.96,1027.36,2046.00,1835.54,2028.13,2188.62,350.66,332.15,18.68,0000 0000 0000 0000 000000
2014-01-17 02:29:03,0.42,5.94,0.00,19.30,25.25,28.63,6.13,32.75,1027.36,2046.00,1835.17,2027.82,2188.22,349.53,331.27,18.69,0000 0000 0000 0000 000000
2014-01-17 02:30:04,0.37,5.94,0.00,19.30,25.25,28.67,6.17,32.75,1027.36,2046.00,1834.65,2027.32,2187.67,349.81,331.55,18.69,0000 0000 0000 0000 000000
2014-01-17 02:31:04,0.59,5.95,0.00,19.30,25.25,28.68,6.23,32.79,1027.37,2046.00,1834.24,2027.09,2187.23,349.52,331.08,18.70,0000 0000 0000 0000 000000
2014-01-17 02:32:04,0.33,5.95,0.00,19.30,25.25,28.69,6.23,32.46,1027.36,2046.00,1833.94,2026.65,2186.85,350.99,332.25,18.71,0000 0000 0000 0000 000000
2014-01-17 02:33:05,0.40,5.95,0.00,19.30,25.25,28.68,6.27,32.83,1027.36,2046.00,1833.41,2026.24,2186.34,349.36,331.28,18.71,0000 0000 0000 0000 000000
2014-01-17 02:34:05,0.53,5.95,0.00,19.30,25.25,28.65,6.16,32.92,1027.36,2046.00,1833.11,2026.07,2186.10,349.23,330.81,18.72,0000 0000 0000 0000 000000
2014-01-17 02:35:05,0.20,5.96,0.00,19.31,25.25,28.68,6.24,32.67,1027.36,2046.00,1832.60,2025.63,2185.69,349.35,330.90,18.72,0000 0000 0000 0000 000000
2014-01-17 02:36:05,0.55,5.96,0.00,19.31,25.25,28.66,6.34,33.04,1027.36,2046.00,1832.21,2025.23,2185.25,350.53,331.63,18.73,0000 0000 0000 0000 000000